TimeCST,TemperatureF,Dew PointF,Humidity,Sea Level PressureIn,VisibilityMPH,Wind Direction,Wind SpeedMPH,Gust SpeedMPH,PrecipitationIn,Events,Conditions,WindDirDegrees,DateUTC
12:15 AM,14.0,14.0,100,29.74,10.0,South,9.2,-,N/A,,Unknown,180,2012-12-19 06:15:00
12:35 AM,14.0,14.0,100,29.75,10.0,SSE,9.2,-,N/A,,Unknown,160,2012-12-19 06:35:00
12:55 AM,14.0,14.0,100,29.75,10.0,South,12.7,-,N/A,,Clear,190,2012-12-19 06:55:00
1:15 AM,14.0,14.0,100,29.75,10.0,SSW,12.7,-,N/A,,Clear,200,2012-12-19 07:15:00
1:35 AM,14.0,14.0,100,29.75,10.0,SSW,13.8,-,N/A,,Unknown,200,2012-12-19 07:35:00
1:55 AM,14.0,14.0,100,29.76,10.0,South,11.5,-,N/A,,Unknown,180,2012-12-19 07:55:00
2:15 AM,14.0,14.0,100,29.77,10.0,SSW,11.5,-,N/A,,Unknown,200,2012-12-19 08:15:00
2:35 AM,14.0,14.0,100,29.78,10.0,SSW,12.7,-,N/A,,Unknown,210,2012-12-19 08:35:00
2:55 AM,15.8,15.8,100,29.78,10.0,SSW,12.7,-,N/A,,Unknown,210,2012-12-19 08:55:00
3:15 AM,15.8,15.8,100,29.78,10.0,SW,9.2,-,N/A,,Unknown,220,2012-12-19 09:15:00
3:35 AM,15.8,15.8,100,29.78,10.0,SSW,9.2,-,N/A,,Clear,210,2012-12-19 09:35:00
3:55 AM,15.8,15.8,100,29.78,10.0,SW,9.2,-,N/A,,Unknown,230,2012-12-19 09:55:00
4:15 AM,15.8,15.8,100,29.78,10.0,SW,10.4,-,N/A,,Unknown,220,2012-12-19 10:15:00
4:35 AM,14.0,14.0,100,29.79,10.0,SW,9.2,-,N/A,,Unknown,230,2012-12-19 10:35:00
4:55 AM,14.0,14.0,100,29.79,10.0,WSW,9.2,-,N/A,,Unknown,240,2012-12-19 10:55:00
5:15 AM,14.0,14.0,100,29.79,10.0,WSW,11.5,-,N/A,,Unknown,240,2012-12-19 11:15:00
5:35 AM,14.0,14.0,100,29.79,10.0,WSW,8.1,-,N/A,,Clear,240,2012-12-19 11:35:00
6:15 AM,14.0,14.0,100,29.80,10.0,SSW,3.5,-,N/A,,Unknown,210,2012-12-19 12:15:00
6:35 AM,15.8,14.0,93,29.82,10.0,WSW,5.8,-,N/A,,Unknown,240,2012-12-19 12:35:00
6:55 AM,14.0,12.2,93,29.82,10.0,WSW,8.1,-,N/A,,Unknown,240,2012-12-19 12:55:00
7:15 AM,14.0,12.2,93,29.83,10.0,SW,9.2,-,N/A,,Unknown,230,2012-12-19 13:15:00
7:35 AM,14.0,12.2,93,29.83,10.0,WSW,9.2,-,N/A,,Unknown,240,2012-12-19 13:35:00
7:55 AM,14.0,14.0,100,29.84,10.0,WSW,10.4,-,N/A,,Clear,240,2012-12-19 13:55:00
8:15 AM,15.8,14.0,93,29.85,10.0,WSW,9.2,-,N/A,,Clear,240,2012-12-19 14:15:00
8:35 AM,15.8,14.0,93,29.86,10.0,WSW,8.1,-,N/A,,Unknown,250,2012-12-19 14:35:00
8:55 AM,14.0,12.2,93,29.85,10.0,SW,9.2,-,N/A,,Unknown,230,2012-12-19 14:55:00
9:15 AM,15.8,12.2,86,29.86,10.0,WSW,9.2,-,N/A,,Unknown,240,2012-12-19 15:15:00
9:35 AM,14.0,10.4,86,29.87,10.0,WSW,8.1,-,N/A,,Unknown,240,2012-12-19 15:35:00
9:55 AM,14.0,10.4,86,29.88,10.0,WSW,11.5,-,N/A,,Unknown,240,2012-12-19 15:55:00
10:15 AM,15.8,10.4,79,29.89,10.0,West,12.7,16.1,N/A,,Clear,260,2012-12-19 16:15:00
10:35 AM,15.8,12.2,86,29.89,10.0,WSW,15.0,-,N/A,,Clear,250,2012-12-19 16:35:00
10:55 AM,15.8,10.4,79,29.89,10.0,WSW,17.3,21.9,N/A,,Clear,250,2012-12-19 16:55:00
11:15 AM,15.8,10.4,79,29.90,10.0,West,13.8,-,N/A,,Unknown,260,2012-12-19 17:15:00
11:35 AM,15.8,10.4,79,29.90,10.0,West,17.3,20.7,N/A,,Unknown,260,2012-12-19 17:35:00
11:55 AM,15.8,12.2,86,29.90,10.0,West,11.5,-,N/A,,Unknown,260,2012-12-19 17:55:00
12:15 PM,17.6,14.0,86,29.91,10.0,West,15.0,21.9,N/A,,Unknown,260,2012-12-19 18:15:00
12:35 PM,17.6,14.0,86,29.91,10.0,West,13.8,-,N/A,,Clear,270,2012-12-19 18:35:00
12:55 PM,17.6,14.0,86,29.92,10.0,West,13.8,17.3,N/A,,Clear,270,2012-12-19 18:55:00
1:15 PM,17.6,14.0,86,29.92,10.0,West,11.5,17.3,N/A,,Scattered Clouds,260,2012-12-19 19:15:00
1:35 PM,17.6,14.0,86,29.91,10.0,West,10.4,-,N/A,,Unknown,260,2012-12-19 19:35:00
1:55 PM,17.6,14.0,86,29.92,10.0,West,11.5,-,N/A,,Unknown,280,2012-12-19 19:55:00
2:15 PM,17.6,14.0,86,29.91,10.0,WNW,16.1,-,N/A,,Unknown,290,2012-12-19 20:15:00
2:35 PM,17.6,14.0,86,29.93,10.0,West,13.8,-,N/A,,Unknown,270,2012-12-19 20:35:00
2:55 PM,19.4,14.0,80,29.94,10.0,West,6.9,-,N/A,,Unknown,260,2012-12-19 20:55:00
3:15 PM,17.6,14.0,86,29.96,10.0,West,6.9,-,N/A,,Scattered Clouds,260,2012-12-19 21:15:00
3:35 PM,19.4,15.8,86,29.95,10.0,West,9.2,-,N/A,,Overcast,280,2012-12-19 21:35:00
3:55 PM,19.4,15.8,86,29.97,10.0,West,10.4,-,N/A,,Overcast,270,2012-12-19 21:55:00
4:15 PM,19.4,15.8,86,29.97,10.0,West,11.5,16.1,N/A,,Unknown,280,2012-12-19 22:15:00
4:35 PM,17.6,15.8,93,29.97,10.0,WNW,16.1,-,N/A,,Unknown,290,2012-12-19 22:35:00
4:55 PM,17.6,15.8,93,29.98,10.0,WNW,9.2,-,N/A,,Unknown,290,2012-12-19 22:55:00
5:15 PM,17.6,15.8,93,29.99,10.0,WNW,10.4,-,N/A,,Unknown,300,2012-12-19 23:15:00
5:35 PM,15.8,14.0,93,30.00,10.0,West,6.9,-,N/A,,Unknown,280,2012-12-19 23:35:00
5:55 PM,17.6,14.0,86,30.01,10.0,WNW,9.2,-,N/A,,Unknown,300,2012-12-19 23:55:00
6:15 PM,17.6,14.0,86,30.01,10.0,WNW,11.5,-,N/A,,Mostly Cloudy,300,2012-12-20 00:15:00
6:35 PM,17.6,14.0,86,30.03,10.0,WNW,10.4,-,N/A,,Mostly Cloudy,300,2012-12-20 00:35:00
6:55 PM,15.8,14.0,93,30.03,10.0,WNW,12.7,-,N/A,,Unknown,290,2012-12-20 00:55:00
7:15 PM,15.8,12.2,86,30.02,10.0,WNW,12.7,-,N/A,,Unknown,300,2012-12-20 01:15:00
7:35 PM,15.8,12.2,86,30.03,10.0,WNW,12.7,-,N/A,,Unknown,290,2012-12-20 01:35:00
7:55 PM,14.0,10.4,86,30.04,10.0,West,10.4,-,N/A,,Unknown,280,2012-12-20 01:55:00
8:15 PM,14.0,10.4,86,30.05,10.0,WNW,11.5,-,N/A,,Unknown,290,2012-12-20 02:15:00
8:35 PM,14.0,10.4,86,30.05,10.0,WNW,11.5,-,N/A,,Overcast,290,2012-12-20 02:35:00
8:55 PM,14.0,10.4,86,30.06,10.0,WNW,8.1,-,N/A,,Overcast,300,2012-12-20 02:55:00
9:15 PM,14.0,10.4,86,30.05,10.0,NW,10.4,-,N/A,,Unknown,310,2012-12-20 03:15:00
9:35 PM,14.0,10.4,86,30.05,10.0,WNW,10.4,-,N/A,,Unknown,300,2012-12-20 03:35:00
9:55 PM,14.0,10.4,86,30.05,10.0,NW,10.4,-,N/A,,Unknown,310,2012-12-20 03:55:00
10:15 PM,14.0,12.2,93,30.05,10.0,NW,13.8,-,N/A,,Unknown,310,2012-12-20 04:15:00
10:35 PM,15.8,12.2,86,30.05,10.0,NW,16.1,-,N/A,,Unknown,310,2012-12-20 04:35:00
10:55 PM,15.8,12.2,86,30.05,10.0,NW,17.3,-,N/A,,Overcast,320,2012-12-20 04:55:00
11:15 PM,14.0,12.2,93,30.05,10.0,NW,19.6,23.0,N/A,,Overcast,320,2012-12-20 05:15:00
11:35 PM,14.0,10.4,86,30.05,10.0,NNW,16.1,20.7,N/A,,Unknown,330,2012-12-20 05:35:00
11:55 PM,14.0,10.4,86,30.06,10.0,NNW,18.4,-,N/A,,Unknown,330,2012-12-20 05:55:00